Location: NCO
(38.4404°N, 77.1340°W)
Time: 09:57:24
(UTC-04:00)

OTV 5 (USA 277) - Visible Passes

Search period start: 25 June 2018 00:00
Search period end: 05 July 2018 00:00
Orbit: 313 x 320 km, 54.5° (Epoch: 21 June)

Date Brightness Start Highest point End Pass type
(mag) Time Alt. Az. Time Alt. Az. Time Alt. Az.
27 Jun ? 23:38:30 10° N 23:39:24 14° N 23:39:24 14° N visible
28 Jun ? 23:52:19 10° NNW 23:52:54 15° NNW 23:52:54 15° NNW visible
29 Jun ? 22:33:48 10° N 22:34:41 11° NNE 22:35:34 10° NE visible
30 Jun ? 22:47:06 10° NNW 22:49:12 22° NNE 22:49:12 22° NNE visible
01 Jul ? 23:01:11 10° NW 23:02:51 33° NNW 23:02:51 33° NNW visible
02 Jul ? 21:42:04 10° N 21:43:47 15° NNE 21:45:31 10° ENE visible
02 Jul ? 23:15:42 10° WNW 23:16:33 17° WNW 23:16:33 17° WNW visible
03 Jul ? 21:55:52 10° NNW 21:58:23 35° NE 21:59:27 24° E visible
04 Jul ? 22:10:08 10° NW 22:12:49 68° SW 22:13:16 53° SSE visible
